Flag for U.S.A. Weather past 2 weeks in Passaic, New Jersey, U.S.A.

Now
24 °F

Clear.


Feels Like: 20 °F
Forecast: 13 / 29 °F
Wind: 3 mph from Southwest

Location: Teterboro Airport

Current Time: Feb 28, 2015 at 8:36:48 PM

Latest Report: Feb 28, 2015 at 7:51 PM


Visibility: 10 mi

Pressure: 30.74 "Hg

Humidity: 48%

Dew point: 7 °F

Location of PassaicLocation

Historic Weather in Passaic — Graph

°F

Passaic temperature yesterday

Maximum temperature yesterday: 29 °F (at 2:51 PM)
Minimum temperature yesterday: 17 °F (at 5:51 AM)
Average temperature yesterday: 22 °F

Past Weeks' High & Low Weather Summary

 TemperatureHumidityPressure
High43 °F (Feb 22, 2:51 PM)93% (Feb 14, 4:58 PM)30.82 "Hg (Feb 14, 4:58 PM)
Low1 °F (Feb 20, 5:51 AM)26% (Feb 16, 12:51 PM)29.45 "Hg (Feb 14, 11:51 PM)
Average20 °F53%30.10 "Hg
* Reported Feb 13 6:51 PM — Feb 28 6:51 PM, Passaic, Weather by CustomWeather, © 2015

Note: Actual official high and low records may vary slightly from our data, if they occured in-between our weather recording intervals... More about our weather records

Advertising

Passaic weather history for previous 24 hours

 ConditionsComfort  
Time TempWeatherWind HumidityBarometerVisibility
6:51 PM
Sat, Feb 28
26 °FClear.No wind35%30.74 "Hg10 mi
5:51 PM28 °FClear.No wind26%30.73 "Hg10 mi
4:51 PM29 °FSunny.3 mph30%30.73 "Hg10 mi
3:51 PM29 °FSunny.3 mph26%30.73 "Hg10 mi
2:51 PM29 °FSunny.3 mph26%30.75 "Hg10 mi
1:51 PM27 °FSunny.3 mph29%30.76 "Hg10 mi
12:51 PM24 °FSunny.No wind32%30.78 "Hg10 mi
11:51 AM23 °FSunny.6 mph35%30.81 "Hg10 mi
10:51 AM22 °FSunny.3 mph33%30.82 "Hg9 mi
9:51 AM19 °FSunny.3 mph38%30.82 "Hg10 mi
8:51 AM16 °FSunny.7 mph43%30.82 "Hg10 mi
7:51 AM14 °FSunny.9 mph44%30.81 "Hg10 mi
6:51 AM12 °FSunny.5 mph48%30.78 "Hg10 mi
5:51 AM12 °FClear.3 mph46%30.76 "Hg10 mi
4:51 AM13 °FClear.6 mph42%30.72 "Hg10 mi
3:51 AM13 °FClear.7 mph44%30.68 "Hg10 mi
2:51 AM16 °FClear.13 mph38%30.66 "Hg10 mi
1:51 AM16 °FClear.7 mph43%30.66 "Hg10 mi
12:51 AM17 °FClear.5 mph41%30.65 "Hg10 mi
11:51 PM
Fri, Feb 27
18 °FClear.8 mph39%30.62 "Hg10 mi
10:51 PM20 °FClear.6 mph36%30.61 "Hg10 mi
9:51 PM22 °FClear.7 mph36%30.58 "Hg10 mi
8:51 PM23 °FClear.9 mph35%30.55 "Hg10 mi
Weather by CustomWeather, © 2015

See weather overviewHow to use our weather pages